Regional Weather Roundup
Issued by NWS Green Bay, WI

Home | Current Version | Previous Version | Graphics & Text | Print | Product List | Glossary Off
Versions: 1 2 3 4 5 6 7 8 9 10 11 12 13 14 15 16 17 18 19 20 21 22 23 24 25 26 27 28 29 30 31 32 33 34 35 36 37 38 39 40 41 42 43 44 45 46 47 48 49 50

000
ASUS43 KGRB 261600
RWRGRB

NORTH-CENTRAL AND NORTHEAST WISCONSIN REGIONAL WEATHER ROUNDUP
NATIONAL WEATHER SERVICE GREEN BAY WI
1100 AM CDT SUN MAR 26 2017

WIZ005-009-010>012-018-019-261700-
NORTH CENTRAL WISCONSIN

CITY           SKY/WX    TMP DP  RH WIND       PRES   REMARKS
IRONWOOD       CLOUDY    36  35  96 NW3       29.96F
MANITOWISH WTR NOT AVBL
ARBOR VITAE    NOT AVBL
EAGLE RIVER    NOT AVBL
LAND O LAKES   NOT AVBL
RHINELANDER    CLOUDY    35  34  96 E6        29.93S FOG
PHILLIPS       NOT AVBL
ANTIGO         NOT AVBL
TOMAHAWK       NOT AVBL
MERRILL        NOT AVBL
$$

WIZ013-073-261700-
NORTHEAST WISCONSIN

CITY           SKY/WX    TMP DP  RH WIND       PRES   REMARKS
IRON MOUNTAIN  FOG       32  30  92 NE5       29.95F VSB 1/2
MARINETTE        N/A    N/A N/A N/A MISG        N/A
$$

WIZ017-030-035>037-045-261700-
CENTRAL WISCONSIN

CITY           SKY/WX    TMP DP  RH WIND       PRES   REMARKS
MEDFORD        NOT AVBL
WAUSAU         LGT RAIN  34  34 100 NE8       29.91F FOG
MOSINEE        LGT RAIN  36  36 100 NE10      29.92F FOG
MARSHFIELD     MIX PCPN  35  33  92 E10       29.89F FOG
WISC RAPIDS    CLOUDY    36  36 100 E9        29.92S FOG
STEVENS POINT  NOT AVBL
WAUPACA        NOT AVBL
SHAWANO        NOT AVBL
CLINTONVILLE   NOT AVBL
WAUTOMA        MIX PCPN  37  36  96 NE7       29.90F FOG
$$

WIZ038-039-048-051-261700-
FOX VALLEY

CITY           SKY/WX    TMP DP  RH WIND       PRES   REMARKS
NWS GREEN BAY  RAIN      37  37 100 NE12      29.93F FOG
APPLETON       LGT RAIN  36  36 100 NE8       29.90F FOG
OSHKOSH        LGT RAIN  38  37  97 NE8       29.89F FOG
FOND DU LAC    RAIN      40  37  89 NE7       29.88F FOG
$$

WIZ022-050-052-261700-
EAST CENTRAL WISCONSIN

CITY           SKY/WX    TMP DP  RH WIND       PRES   REMARKS
EPHRAIM        NOT AVBL
WASHINGTON ISL NOT AVBL
STURGEON BAY   LGT RAIN  37  36  96 NE7       29.95F FOG
MANITOWOC      NOT AVBL
SHEBOYGAN      LGT RAIN  39  38  96 NE9       29.89F FOG
$$

LMZ563-521-522-541>543-261700-
LAKESHORE

STATION/POSITION TIME  TEMP    WIND        PRES    VSBY  WAVE
                       AIR SEA DIR/SP/G                  HT/PER
                 (UTC) (F)     (DEG/KT/KT) (MB)    (MI)  (FT/S)
SHEBOYGAN LKSHOR 1500   37      30/ 10/ 10 1013.3F
KEWAUNEE LKSHORE 1530   37      40/  8/ 10 1013.4F
NORTHPORT PIER   1540   34      70/  8/ 10 1015.2S
CHAMBERS ISLAND  1540   35      60/  7/ 10 1014.6F
MENOMINEE LKSHOR 1530   33     360/  6/  8 1014.2F
$$




USA.gov is the U.S. government's official web portal to all federal, state and local government web resources and services.